SL-18 DEB

Satellite information

Favourite Embed

Satellite Type and Status

DEBRISIN ORBIT

Key statistics

Satellite SL-18 DEB at a glance.

Uptime

11902

Days in orbit

Revolutions

≈ 14.5

Per day

Orbit

LEO

Low Earth Orbit

Inclination

75.8

Latest

Satellite identification and parameters

Extended collection of information and parameters for SL-18 DEB.

Object identification

Identified? True

Debris? True

Object name: SL-18 DEB

International designator: 1993-014V

Object number (NORAD): 28292

Object ID (CCSDS): 28292

Country: COMMONWEALTH OF INDEPENDENT STATES (CIS)

Current information (Y/N): Y

RCS size: SMALL

Orbital parameters

Period: 99.598 minutes

Inclination: 75.7549 deg

SMA: 7117.484 km

Apoapsis: 831.854 km

Periapsis: 646.845 km

RAAN: 87.2519 deg

Eccentricy: 0.0129968

Argument of periapsis: 278.7023 deg

Mean anomaly: 79.9442 deg

Mean motion: 14.45815822 rev/day

Mean motion (dot): 0.0000338 rev/day2

B* drag term: 0.00086224 1/REarth

Two-line elements (TLE)

Creation date: Oct. 17, 2025, 6:56 a.m.

Reference frame: TEME

Reference center: EARTH

Epoch: Oct. 16, 2025, 6:44 p.m. UTC

TLE line 0: 0 SL-18 DEB

TLE line 1: 1 28292U 93014V 25289.78092916 .00003380 00000-0 86224-3 0 9997

TLE line 2: 2 28292 75.7549 87.2519 0129968 278.7023 79.9442 14.45815822648809

Live tracking on map

Real-time ground track for satellite SL-18 DEB.

In-orbit conjunctions

A list of the most updated potential collisions computed for object SL-18 DEB.

Target Orbit TCA Probability of collision Miss distance Type
FENGYUN 1C DEB SSO 2025-02-19 03:47:33 0.0001310638 236.0 (m) DEBRIS
PSLV R/B SSO 2025-01-06 16:34:06 0.0001397031 546.0 (m) ROCKET BODY
THOR BURNER 2A R/B SSO 2024-09-10 06:57:00 0.0006156585 103.0 (m) ROCKET BODY

Associated space launch

EKA 1 and 2 were vehicle evaluation payloads on the maiden flights of the Start-1 and Start launch vehicles.

SL-18 DEB was lifted into orbit during the mission ‘Start-1 | EKA-1’, on board a Start-1 space rocket.

The launch took place on March 25, 1993, 1:15 p.m. from 158.

For more information about the launch, click the button.

Launch to space Start-1 | EKA-1
Start-1 | EKA-1

Agency: N/A

Status: Launch Successful

Launch date: March 25, 1993, 1:15 p.m. UTC

Rocket: Start-1

Launch pad: 158

Location: Plesetsk Cosmodrome, Russian Federation

...

Latest news about this satellite

There are no fresh news available about this satellite. Check back as we update our databases every day.


Newsletter sign-up

Weekly statistics, charts and insights to help you stay on top of the space industry.